QPF
0.01 0.01 0.02 0.01 0.01 0.01 0.01 0.01 0.01 0.01 0.01 0.01 0.01 0.00 0.01 0.01 0.01 0.02 0.02 0.02 0.01 0.01 0.01 0.01 0.01 0.02 0.02 0.02 0.02 0.02 0.03 0.05 0.06 0.06 0.06 0.05 0.03 0.02 0.02 0.02 0.02 0.02 0.01 0.01
0.01 0.01 0.01 0.01 0.01 0.01 0.01 0.02 0.02 0.01 0.01 0.00 0.00 0.00 0.00 0.01 0.01 0.01 0.01 0.01 0.01 0.01 0.01 0.01 0.01 0.02 0.02 0.02 0.02 0.02 0.04 0.06 0.06 0.05 0.05 0.05 0.03 0.02 0.02 0.02 0.01 0.01 0.01 0.01
0.01 0.01 0.01 0.01 0.01 0.01 0.02 0.02 0.01 0.01 0.01 0.00 0.00 0.00 0.00 0.01 0.01 0.01 0.01 0.01 0.01 0.01 0.01 0.01 0.01 0.02 0.02 0.02 0.02 0.03 0.04 0.05 0.06 0.05 0.04 0.04 0.04 0.02 0.02 0.02 0.01 0.01 0.01 0.01
0.00 0.00 0.01 0.01 0.01 0.01 0.02 0.01 0.01 0.01 0.00 0.00 0.01 0.01 0.01 0.01 0.01 0.01 0.02 0.02 0.01 0.01 0.01 0.01 0.01 0.01 0.02 0.02 0.03 0.03 0.04 0.04 0.05 0.04 0.03 0.03 0.02 0.02 0.01 0.01 0.01 0.01 0.01 0.00
0.01 0.00 0.00 0.00 0.00 0.01 0.01 0.01 0.01 0.01 0.01 0.00 0.01 0.01 0.02 0.01 0.01 0.02 0.02 0.02 0.02 0.02 0.01 0.01 0.01 0.01 0.01 0.02 0.02 0.02 0.03 0.03 0.03 0.03 0.02 0.02 0.02 0.01 0.01 0.01 0.01 0.01 0.01 0.01
0.01 0.01 0.00 0.01 0.01 0.01 0.01 0.01 0.00 0.01 0.00 0.00 0.00 0.00 0.01 0.01 0.01 0.01 0.02 0.02 0.02 0.02 0.02 0.02 0.01 0.01 0.02 0.03 0.03 0.03 0.03 0.03 0.02 0.02 0.01 0.01 0.01 0.01 0.01 0.01 0.01 0.01 0.01 0.01
0.01 0.01 0.01 0.00 0.01 0.01 0.01 0.01 0.00 0.00 0.00 0.00 0.00 0.00 0.00 0.01 0.01 0.01 0.02 0.02 0.03 0.04 0.04 0.03 0.03 0.03 0.04 0.03 0.03 0.02 0.02 0.03 0.02 0.01 0.01 0.01 0.01 0.01 0.00 0.00 0.01 0.01 0.00 0.00
0.01 0.01 0.01 0.01 0.01 0.02 0.01 0.00 0.00 0.00 0.00 0.00 0.00 0.00 0.00 0.00 0.00 0.01 0.02 0.03 0.04 0.05 0.05 0.05 0.05 0.04 0.03 0.03 0.03 0.02 0.02 0.03 0.02 0.01 0.01 0.01 0.01 0.01 0.01 0.01 0.01 0.00 0.00 0.00
0.02 0.01 0.01 0.01 0.02 0.01 0.01 0.00 0.00 0.00 0.00 0.00 0.00 0.00 0.01 0.01 0.01 0.03 0.03 0.04 0.05 0.05 0.04 0.05 0.04 0.03 0.02 0.02 0.02 0.02 0.02 0.02 0.01 0.01 0.01 0.00 0.00 0.01 0.01 0.01 0.00 0.00 0.00 0.00
0.01 0.01 0.01 0.01 0.01 0.01 0.01 0.00 0.00 0.00 0.00 0.00 0.00 0.00 0.01 0.01 0.01 0.02 0.02 0.03 0.04 0.04 0.04 0.03 0.02 0.02 0.01 0.01 0.02 0.02 0.02 0.01 0.01 0.00 0.00 0.00 0.00 0.00 0.01 0.01 0.01 0.00 0.00 0.00
0.02 0.02 0.01 0.01 0.01 0.01 0.00 0.00 0.00 0.00 0.00 0.00 0.00 0.00 0.00 0.00 0.01 0.01 0.02 0.02 0.02 0.03 0.03 0.03 0.02 0.01 0.01 0.02 0.02 0.01 0.01 0.01 0.00 0.00 0.00 0.00 0.00 0.00 0.00 0.01 0.00 0.00 0.00 0.00
0.02 0.02 0.01 0.01 0.01 0.01 0.00 0.00 0.00 0.00 0.00 0.00 0.00 0.00 0.00 0.01 0.01 0.01 0.02 0.02 0.02 0.03 0.03 0.02 0.02 0.02 0.01 0.02 0.01 0.01 0.01 0.00 0.00 0.00 0.00 0.00 0.00 0.00 0.00 0.00 0.00 0.00 0.00 0.00
0.03 0.02 0.01 0.01 0.01 0.00 0.00 0.00 0.00 0.00 0.00 0.00 0.00 0.00 0.01 0.01 0.01 0.01 0.02 0.02 0.01 0.02 0.02 0.02 0.02 0.01 0.02 0.01 0.01 0.00 0.00 0.00 0.00 0.00 0.00 0.00 0.00 0.00 0.00 0.00 0.00 0.00 0.00 0.00
0.00 0.00 0.00 0.00 0.00 0.00 0.00 0.00 0.00 0.00 0.00 0.00 0.00 0.00 0.01 0.02 0.01 0.01 0.02 0.01 0.01 0.01 0.02 0.02 0.01 0.02 0.03 0.02 0.00 0.00 0.00 0.00 0.00 0.00 0.00 0.00 0.00 0.00 0.00 0.00 0.00 0.00 0.00 0.00
0.00 0.00 0.00 0.00 0.00 0.00 0.00 0.00 0.00 0.00 0.00 0.00 0.01 0.01 0.02 0.02 0.01 0.01 0.01 0.01 0.01 0.01 0.01 0.01 0.01 0.03 0.03 0.02 0.00 0.00 0.00 0.00 0.00 0.00 0.00 0.00 0.00 0.00 0.00 0.00 0.00 0.00 0.00 0.00
0.00 0.00 0.00 0.00 0.00 0.00 0.00 0.00 0.00 0.00 0.00 0.01 0.01 0.01 0.01 0.01 0.01 0.01 0.00 0.00 0.01 0.01 0.01 0.01 0.01 0.01 0.01 0.00 0.00 0.00 0.00 0.00 0.00 0.00 0.00 0.00 0.00 0.00 0.00 0.00 0.00 0.00 0.00 0.00
0.00 0.00 0.00 0.00 0.00 0.00 0.00 0.01 0.00 0.00 0.00 0.00 0.00 0.00 0.01 0.01 0.01 0.00 0.00 0.00 0.00 0.01 0.01 0.00 0.01 0.00 0.00 0.00 0.00 0.00 0.00 0.00 0.00 0.00 0.00 0.00 0.00 0.00 0.00 0.00 0.00 0.00 0.00 0.00
0.00 0.00 0.00 0.00 0.00 0.00 0.00 0.00 0.00 0.00 0.00 0.00 0.00 0.00 0.00 0.00 0.00 0.00 0.00 0.00 0.00 0.00 0.00 0.00 0.00 0.00 0.00 0.00 0.00 0.00 0.00 0.00 0.00 0.00 0.00 0.00 0.00 0.00 0.00 0.00 0.00 0.00 0.00 0.00
0.00 0.00 0.00 0.00 0.00 0.00 0.00 0.00 0.00 0.00 0.00 0.00 0.00 0.00 0.00 0.00 0.00 0.00 0.00 0.00 0.00 0.00 0.00 0.00 0.00 0.00 0.00 0.00 0.00 0.00 0.00 0.00 0.00 0.00 0.00 0.00 0.00 0.00 0.00 0.00 0.00 0.00 0.00 0.00
0.00 0.00 0.00 0.00 0.00 0.00 0.00 0.00 0.00 0.00 0.00 0.00 0.00 0.00 0.00 0.00 0.00 0.00 0.00 0.00 0.00 0.00 0.00 0.00 0.00 0.00 0.00 0.00 0.00 0.00 0.00 0.00 0.00 0.00 0.00 0.00 0.00 0.00 0.00 0.00 0.00 0.00 0.00 0.00
0.00 0.00 0.00 0.00 0.00 0.00 0.00 0.00 0.00 0.00 0.00 0.00 0.00 0.00 0.00 0.00 0.00 0.00 0.00 0.00 0.00 0.00 0.00 0.00 0.00 0.00 0.00 0.00 0.00 0.00 0.00 0.00 0.00 0.00 0.00 0.00 0.00 0.00 0.00 0.00 0.00 0.00 0.00 0.00
0.00 0.00 0.00 0.00 0.00 0.00 0.00 0.00 0.00 0.00 0.00 0.00 0.00 0.00 0.00 0.00 0.00 0.00 0.00 0.00 0.00 0.00 0.00 0.00 0.00 0.00 0.00 0.00 0.00 0.00 0.00 0.00 0.00 0.00 0.00 0.00 0.00 0.00 0.00 0.00 0.00 0.00 0.00 0.00
0.00 0.00 0.00 0.00 0.00 0.00 0.00 0.00 0.00 0.00 0.00 0.00 0.00 0.00 0.00 0.00 0.00 0.00 0.00 0.00 0.00 0.00 0.00 0.00 0.00 0.00 0.00 0.00 0.00 0.00 0.00 0.00 0.00 0.00 0.00 0.00 0.00 0.00 0.00 0.00 0.00 0.00 0.00 0.00
0.01 0.00 0.00 0.00 0.00 0.00 0.00 0.00 0.00 0.00 0.00 0.00 0.00 0.00 0.00 0.00 0.00 0.00 0.00 0.00 0.00 0.00 0.00 0.00 0.00 0.00 0.00 0.00 0.00 0.00 0.00 0.00 0.00 0.00 0.00 0.00 0.00 0.00 0.00 0.00 0.00 0.00 0.00 0.00
0.01 0.01 0.00 0.00 0.00 0.00 0.00 0.00 0.00 0.00 0.00 0.00 0.00 0.00 0.00 0.00 0.00 0.00 0.00 0.00 0.00 0.00 0.00 0.00 0.00 0.00 0.00 0.00 0.00 0.00 0.00 0.00 0.00 0.00 0.00 0.00 0.00 0.00 0.00 0.00 0.00 0.00 0.00 0.00
0.01 0.01 0.01 0.00 0.00 0.00 0.00 0.00 0.00 0.00 0.00 0.00 0.00 0.00 0.00 0.00 0.00 0.00 0.00 0.00 0.00 0.00 0.00 0.00 0.00 0.00 0.00 0.00 0.00 0.00 0.00 0.00 0.00 0.00 0.00 0.00 0.00 0.00 0.00 0.00 0.00 0.00 0.00 0.00
0.01 0.01 0.01 0.01 0.00 0.00 0.00 0.00 0.00 0.00 0.00 0.00 0.00 0.00 0.00 0.00 0.00 0.00 0.00 0.00 0.00 0.00 0.00 0.00 0.00 0.00 0.00 0.00 0.00 0.00 0.00 0.00 0.00 0.00 0.00 0.00 0.00 0.00 0.00 0.00 0.00 0.00 0.00 0.00
MSLP
1014.17 1014.02 1013.89 1013.79 1013.71 1013.63 1013.54 1013.43 1013.30 1013.16 1013.04 1012.97 1012.98 1013.12 1013.38 1013.78 1014.29 1014.89 1015.52 1016.15 1016.71 1017.18 1017.53 1017.76 1017.89 1017.92 1017.90 1017.85 1017.80 1017.77 1017.78 1017.84 1017.94 1018.08 1018.24 1018.42 1018.61 1018.80 1018.96 1019.11 1019.23 1019.33 1019.42 1019.51
1014.38 1014.12 1013.82 1013.51 1013.21 1012.92 1012.67 1012.46 1012.33 1012.27 1012.30 1012.44 1012.70 1013.06 1013.53 1014.08 1014.68 1015.31 1015.92 1016.50 1017.01 1017.43 1017.77 1018.02 1018.20 1018.33 1018.41 1018.48 1018.54 1018.60 1018.68 1018.77 1018.89 1019.02 1019.17 1019.33 1019.49 1019.65 1019.80 1019.93 1020.04 1020.13 1020.20 1020.26
1014.57 1014.22 1013.79 1013.32 1012.84 1012.40 1012.04 1011.78 1011.67 1011.70 1011.89 1012.23 1012.70 1013.26 1013.90 1014.56 1015.22 1015.85 1016.43 1016.94 1017.37 1017.74 1018.05 1018.31 1018.53 1018.73 1018.92 1019.09 1019.24 1019.39 1019.52 1019.65 1019.77 1019.89 1020.02 1020.16 1020.30 1020.45 1020.59 1020.72 1020.83 1020.93 1021.01 1021.08
1014.73 1014.31 1013.79 1013.21 1012.62 1012.10 1011.68 1011.43 1011.36 1011.49 1011.82 1012.33 1012.97 1013.69 1014.45 1015.19 1015.88 1016.49 1017.01 1017.45 1017.80 1018.11 1018.38 1018.64 1018.90 1019.15 1019.41 1019.66 1019.90 1020.11 1020.29 1020.44 1020.57 1020.68 1020.79 1020.91 1021.04 1021.19 1021.34 1021.49 1021.63 1021.76 1021.87 1021.97
1014.83 1014.36 1013.78 1013.15 1012.53 1011.97 1011.56 1011.34 1011.34 1011.57 1012.02 1012.66 1013.43 1014.26 1015.10 1015.88 1016.58 1017.16 1017.63 1017.99 1018.28 1018.53 1018.77 1019.02 1019.29 1019.58 1019.89 1020.20 1020.49 1020.74 1020.95 1021.12 1021.25 1021.36 1021.47 1021.58 1021.72 1021.88 1022.05 1022.24 1022.43 1022.60 1022.75 1022.89
1014.85 1014.34 1013.74 1013.10 1012.48 1011.95 1011.58 1011.42 1011.51 1011.84 1012.39 1013.13 1013.99 1014.89 1015.77 1016.57 1017.26 1017.81 1018.23 1018.54 1018.79 1018.99 1019.20 1019.44 1019.71 1020.03 1020.36 1020.70 1021.02 1021.29 1021.52 1021.70 1021.83 1021.94 1022.05 1022.18 1022.33 1022.52 1022.73 1022.96 1023.20 1023.42 1023.62 1023.80
1014.75 1014.21 1013.61 1013.00 1012.43 1011.97 1011.68 1011.61 1011.78 1012.20 1012.83 1013.64 1014.55 1015.48 1016.38 1017.19 1017.86 1018.39 1018.79 1019.07 1019.28 1019.47 1019.66 1019.89 1020.16 1020.47 1020.81 1021.15 1021.47 1021.75 1021.99 1022.17 1022.31 1022.43 1022.56 1022.70 1022.88 1023.10 1023.35 1023.63 1023.91 1024.18 1024.42 1024.62
1014.55 1013.99 1013.40 1012.84 1012.35 1011.99 1011.80 1011.83 1012.10 1012.59 1013.28 1014.13 1015.06 1016.01 1016.90 1017.70 1018.37 1018.89 1019.28 1019.56 1019.77 1019.95 1020.14 1020.35 1020.62 1020.92 1021.24 1021.57 1021.88 1022.15 1022.37 1022.55 1022.70 1022.84 1022.99 1023.16 1023.37 1023.62 1023.91 1024.22 1024.53 1024.83 1025.09 1025.31
1014.25 1013.68 1013.14 1012.65 1012.26 1012.02 1011.95 1012.09 1012.44 1012.99 1013.73 1014.58 1015.52 1016.45 1017.34 1018.13 1018.78 1019.31 1019.70 1019.99 1020.22 1020.41 1020.60 1020.82 1021.07 1021.35 1021.65 1021.95 1022.23 1022.48 1022.70 1022.88 1023.04 1023.20 1023.37 1023.58 1023.82 1024.09 1024.41 1024.74 1025.06 1025.37 1025.63 1025.85
1013.89 1013.34 1012.86 1012.47 1012.21 1012.09 1012.15 1012.39 1012.82 1013.43 1014.18 1015.04 1015.95 1016.86 1017.71 1018.48 1019.13 1019.66 1020.07 1020.38 1020.63 1020.85 1021.05 1021.26 1021.50 1021.75 1022.02 1022.29 1022.54 1022.78 1022.98 1023.17 1023.35 1023.53 1023.73 1023.96 1024.23 1024.53 1024.85 1025.18 1025.50 1025.79 1026.04 1026.24
1013.50 1013.00 1012.61 1012.35 1012.22 1012.25 1012.43 1012.78 1013.28 1013.92 1014.68 1015.52 1016.39 1017.25 1018.06 1018.80 1019.43 1019.96 1020.39 1020.73 1021.00 1021.23 1021.45 1021.66 1021.89 1022.12 1022.35 1022.59 1022.82 1023.04 1023.24 1023.44 1023.64 1023.85 1024.08 1024.34 1024.62 1024.93 1025.25 1025.56 1025.86 1026.13 1026.35 1026.52
1013.10 1012.69 1012.42 1012.29 1012.32 1012.49 1012.81 1013.25 1013.82 1014.49 1015.24 1016.03 1016.85 1017.66 1018.41 1019.10 1019.71 1020.22 1020.65 1021.00 1021.29 1021.54 1021.77 1021.98 1022.19 1022.41 1022.62 1022.84 1023.06 1023.27 1023.48 1023.70 1023.92 1024.17 1024.42 1024.71 1025.00 1025.31 1025.62 1025.91 1026.18 1026.41 1026.59 1026.73
1012.69 1012.40 1012.27 1012.30 1012.49 1012.80 1013.24 1013.78 1014.40 1015.09 1015.82 1016.57 1017.33 1018.06 1018.75 1019.38 1019.94 1020.42 1020.84 1021.19 1021.49 1021.75 1021.98 1022.20 1022.40 1022.61 1022.82 1023.02 1023.24 1023.46 1023.69 1023.93 1024.19 1024.47 1024.76 1025.06 1025.37 1025.68 1025.97 1026.23 1026.47 1026.66 1026.80 1026.91
1012.26 1012.10 1012.13 1012.32 1012.66 1013.12 1013.67 1014.29 1014.96 1015.66 1016.37 1017.07 1017.76 1018.41 1019.03 1019.59 1020.09 1020.54 1020.94 1021.28 1021.57 1021.83 1022.07 1022.29 1022.50 1022.70 1022.91 1023.13 1023.36 1023.60 1023.86 1024.13 1024.43 1024.73 1025.06 1025.38 1025.70 1026.00 1026.28 1026.53 1026.73 1026.89 1027.01 1027.09
1011.78 1011.77 1011.94 1012.29 1012.77 1013.36 1014.01 1014.70 1015.41 1016.12 1016.80 1017.46 1018.08 1018.66 1019.20 1019.70 1020.14 1020.55 1020.91 1021.23 1021.52 1021.78 1022.02 1022.25 1022.47 1022.69 1022.91 1023.15 1023.40 1023.67 1023.97 1024.28 1024.61 1024.95 1025.30 1025.64 1025.96 1026.27 1026.54 1026.77 1026.95 1027.10 1027.20 1027.27
1011.25 1011.36 1011.67 1012.15 1012.75 1013.44 1014.18 1014.93 1015.67 1016.38 1017.05 1017.67 1018.24 1018.76 1019.24 1019.67 1020.07 1020.43 1020.76 1021.07 1021.35 1021.61 1021.86 1022.11 1022.34 1022.59 1022.84 1023.10 1023.39 1023.69 1024.02 1024.36 1024.72 1025.09 1025.45 1025.81 1026.14 1026.44 1026.71 1026.93 1027.11 1027.25 1027.35 1027.42
1010.66 1010.88 1011.30 1011.87 1012.57 1013.33 1014.13 1014.93 1015.70 1016.42 1017.07 1017.67 1018.20 1018.68 1019.11 1019.50 1019.86 1020.20 1020.51 1020.81 1021.09 1021.37 1021.63 1021.90 1022.16 1022.43 1022.72 1023.01 1023.33 1023.66 1024.01 1024.38 1024.76 1025.14 1025.51 1025.87 1026.21 1026.51 1026.78 1027.00 1027.18 1027.32 1027.43 1027.50
1010.04 1010.34 1010.83 1011.47 1012.23 1013.04 1013.88 1014.71 1015.49 1016.22 1016.88 1017.46 1017.98 1018.44 1018.85 1019.23 1019.57 1019.90 1020.21 1020.51 1020.81 1021.10 1021.39 1021.68 1021.97 1022.28 1022.59 1022.92 1023.26 1023.61 1023.98 1024.35 1024.73 1025.11 1025.48 1025.84 1026.16 1026.46 1026.72 1026.95 1027.14 1027.28 1027.40 1027.49
1009.46 1009.80 1010.33 1011.00 1011.78 1012.62 1013.47 1014.31 1015.11 1015.84 1016.51 1017.10 1017.62 1018.09 1018.51 1018.89 1019.24 1019.58 1019.91 1020.23 1020.55 1020.86 1021.18 1021.51 1021.83 1022.16 1022.50 1022.85 1023.20 1023.56 1023.93 1024.30 1024.66 1025.02 1025.37 1025.71 1026.02 1026.30 1026.55 1026.78 1026.97 1027.13 1027.26 1027.36
1008.97 1009.33 1009.86 1010.53 1011.31 1012.14 1012.99 1013.82 1014.62 1015.36 1016.04 1016.66 1017.20 1017.70 1018.14 1018.55 1018.94 1019.31 1019.66 1020.02 1020.36 1020.71 1021.06 1021.41 1021.77 1022.12 1022.47 1022.83 1023.18 1023.53 1023.88 1024.22 1024.56 1024.89 1025.21 1025.51 1025.79 1026.05 1026.29 1026.50 1026.69 1026.86 1026.99 1027.11
1008.61 1008.97 1009.49 1010.13 1010.87 1011.68 1012.50 1013.32 1014.12 1014.87 1015.56 1016.21 1016.79 1017.32 1017.81 1018.27 1018.70 1019.11 1019.51 1019.89 1020.28 1020.66 1021.03 1021.41 1021.78 1022.14 1022.50 1022.85 1023.19 1023.52 1023.84 1024.15 1024.44 1024.73 1025.00 1025.26 1025.50 1025.73 1025.95 1026.15 1026.33 1026.50 1026.64 1026.75
1008.43 1008.76 1009.24 1009.84 1010.53 1011.29 1012.07 1012.87 1013.65 1014.40 1015.12 1015.79 1016.42 1017.00 1017.54 1018.05 1018.53 1018.99 1019.43 1019.85 1020.27 1020.67 1021.07 1021.46 1021.84 1022.20 1022.56 1022.89 1023.21 1023.51 1023.79 1024.06 1024.30 1024.54 1024.76 1024.97 1025.18 1025.38 1025.57 1025.75 1025.92 1026.07 1026.20 1026.32
1008.40 1008.70 1009.12 1009.65 1010.28 1010.98 1011.71 1012.47 1013.24 1013.99 1014.73 1015.43 1016.10 1016.73 1017.32 1017.89 1018.42 1018.92 1019.40 1019.85 1020.29 1020.72 1021.12 1021.52 1021.89 1022.25 1022.59 1022.90 1023.19 1023.46 1023.70 1023.93 1024.13 1024.31 1024.49 1024.65 1024.82 1024.98 1025.14 1025.30 1025.45 1025.59 1025.72 1025.83
1008.49 1008.73 1009.09 1009.55 1010.10 1010.73 1011.41 1012.13 1012.87 1013.62 1014.36 1015.10 1015.80 1016.48 1017.13 1017.73 1018.31 1018.85 1019.36 1019.83 1020.29 1020.72 1021.13 1021.51 1021.88 1022.22 1022.54 1022.83 1023.10 1023.34 1023.54 1023.73 1023.89 1024.03 1024.16 1024.29 1024.41 1024.54 1024.67 1024.80 1024.94 1025.07 1025.19 1025.29
1008.65 1008.82 1009.09 1009.47 1009.94 1010.49 1011.11 1011.79 1012.51 1013.25 1014.00 1014.76 1015.50 1016.21 1016.90 1017.54 1018.15 1018.72 1019.24 1019.73 1020.19 1020.61 1021.01 1021.39 1021.74 1022.06 1022.37 1022.64 1022.88 1023.09 1023.27 1023.43 1023.56 1023.67 1023.77 1023.86 1023.95 1024.05 1024.15 1024.26 1024.38 1024.49 1024.61 1024.71
1008.78 1008.87 1009.07 1009.36 1009.75 1010.23 1010.79 1011.42 1012.11 1012.85 1013.61 1014.38 1015.14 1015.89 1016.60 1017.27 1017.90 1018.48 1019.01 1019.50 1019.94 1020.36 1020.74 1021.10 1021.44 1021.74 1022.03 1022.29 1022.51 1022.71 1022.87 1023.01 1023.12 1023.21 1023.28 1023.35 1023.42 1023.49 1023.56 1023.66 1023.75 1023.86 1023.96 1024.06
1008.83 1008.85 1008.96 1009.17 1009.48 1009.90 1010.41 1011.00 1011.66 1012.39 1013.15 1013.93 1014.71 1015.47 1016.20 1016.89 1017.52 1018.10 1018.63 1019.11 1019.54 1019.94 1020.30 1020.64 1020.96 1021.26 1021.53 1021.78 1022.00 1022.19 1022.35 1022.48 1022.58 1022.66 1022.71 1022.76 1022.81 1022.85 1022.91 1022.98 1023.05 1023.15 1023.25 1023.35
Thickness
5643 5649 5651 5652 5654 5652 5644 5641 5635 5641 5642 5645 5639 5632 5623 5614 5604 5596 5588 5581 5575 5568 5563 5560 5557 5555 5555 5554 5554 5554 5554 5554 5553 5553 5552 5553 5553 5553 5554 5555 5556 5557 5558 5558
5639 5649 5649 5649 5655 5654 5651 5649 5644 5643 5641 5642 5636 5626 5617 5609 5601 5592 5584 5576 5568 5562 5556 5552 5549 5547 5546 5545 5544 5545 5545 5544 5544 5544 5543 5542 5542 5543 5543 5544 5545 5547 5547 5547
5624 5637 5643 5640 5652 5653 5652 5651 5646 5640 5640 5633 5626 5620 5613 5605 5597 5587 5578 5570 5562 5555 5550 5546 5542 5540 5537 5536 5536 5536 5535 5535 5534 5534 5534 5533 5533 5532 5533 5533 5534 5534 5535 5536
5617 5627 5626 5643 5658 5657 5650 5648 5647 5643 5637 5631 5623 5613 5606 5599 5591 5581 5571 5562 5554 5547 5542 5537 5534 5531 5529 5528 5527 5527 5527 5526 5526 5526 5525 5524 5524 5523 5522 5523 5523 5524 5524 5525
5610 5616 5626 5645 5653 5652 5646 5643 5643 5637 5628 5619 5612 5604 5594 5589 5583 5574 5564 5555 5547 5540 5535 5530 5527 5524 5522 5520 5520 5520 5519 5519 5518 5518 5517 5517 5516 5515 5515 5515 5514 5514 5515 5516
5609 5615 5618 5637 5652 5656 5648 5636 5638 5632 5622 5614 5608 5599 5589 5580 5573 5563 5555 5547 5539 5533 5528 5524 5520 5518 5516 5514 5514 5513 5513 5512 5512 5512 5511 5510 5509 5508 5508 5507 5507 5507 5507 5507
5609 5611 5622 5641 5650 5651 5632 5631 5635 5628 5620 5611 5604 5596 5585 5574 5564 5556 5547 5539 5533 5527 5522 5518 5515 5513 5511 5509 5508 5508 5507 5507 5506 5506 5505 5504 5503 5502 5501 5501 5500 5499 5499 5499
5608 5608 5619 5641 5642 5637 5634 5635 5631 5623 5614 5602 5593 5586 5577 5567 5557 5548 5540 5533 5527 5521 5517 5513 5511 5509 5507 5504 5503 5503 5503 5502 5501 5501 5501 5500 5498 5496 5495 5494 5494 5493 5492 5492
5612 5618 5630 5634 5635 5636 5635 5630 5625 5616 5606 5598 5589 5579 5570 5560 5551 5542 5535 5527 5522 5517 5513 5509 5507 5506 5504 5501 5500 5500 5499 5497 5496 5496 5495 5495 5494 5492 5490 5489 5488 5487 5486 5485
5616 5625 5630 5632 5633 5633 5632 5628 5621 5613 5603 5595 5585 5575 5566 5556 5546 5537 5529 5523 5518 5514 5510 5507 5505 5504 5502 5500 5499 5497 5495 5493 5492 5492 5490 5489 5489 5488 5486 5485 5484 5484 5483 5481
5616 5624 5629 5631 5629 5627 5625 5621 5615 5607 5599 5591 5582 5571 5562 5552 5542 5534 5527 5520 5516 5512 5509 5506 5503 5501 5500 5499 5497 5494 5492 5490 5489 5488 5487 5485 5484 5483 5483 5482 5482 5482 5480 5478
5618 5626 5625 5625 5625 5623 5620 5614 5609 5602 5593 5585 5578 5568 5558 5548 5539 5532 5525 5519 5514 5510 5507 5504 5502 5500 5499 5498 5496 5493 5491 5488 5487 5485 5484 5483 5482 5480 5480 5481 5481 5480 5479 5477
5626 5628 5625 5624 5622 5620 5615 5610 5604 5599 5591 5581 5572 5564 5556 5546 5537 5530 5524 5519 5514 5511 5507 5504 5502 5500 5498 5497 5495 5493 5491 5488 5486 5485 5484 5482 5481 5481 5479 5478 5479 5478 5477 5477
5627 5625 5622 5621 5618 5616 5612 5606 5600 5593 5585 5578 5569 5561 5553 5545 5537 5530 5524 5519 5515 5511 5508 5505 5502 5500 5499 5497 5495 5493 5491 5489 5487 5485 5484 5482 5481 5480 5479 5479 5478 5477 5476 5476
5627 5628 5624 5620 5615 5610 5606 5602 5595 5588 5581 5573 5567 5560 5553 5545 5538 5531 5525 5521 5516 5512 5509 5506 5503 5501 5499 5498 5496 5494 5492 5490 5488 5486 5484 5483 5481 5480 5480 5479 5478 5477 5477 5478
5625 5624 5621 5617 5612 5607 5603 5599 5593 5586 5580 5573 5566 5560 5553 5547 5540 5533 5528 5523 5518 5514 5511 5508 5505 5503 5501 5500 5497 5495 5493 5492 5490 5488 5486 5485 5484 5483 5482 5481 5481 5480 5480 5480
5622 5619 5617 5614 5611 5607 5602 5599 5594 5588 5581 5575 5568 5561 5554 5547 5541 5534 5530 5526 5522 5518 5514 5511 5508 5506 5504 5502 5500 5497 5496 5494 5493 5491 5490 5489 5488 5487 5486 5485 5485 5485 5485 5485
5630 5629 5626 5621 5615 5608 5603 5598 5594 5589 5583 5577 5570 5563 5557 5550 5544 5538 5532 5528 5524 5520 5517 5515 5512 5509 5507 5505 5503 5500 5499 5497 5496 5495 5494 5493 5492 5491 5491 5490 5490 5490 5490 5489
5630 5628 5624 5620 5616 5611 5606 5600 5594 5589 5584 5578 5572 5565 5560 5554 5547 5541 5536 5531 5527 5523 5521 5519 5517 5514 5511 5509 5507 5504 5503 5502 5500 5499 5498 5498 5497 5497 5496 5496 5495 5495 5495 5494
5629 5627 5624 5620 5616 5612 5607 5601 5596 5590 5585 5580 5573 5567 5561 5556 5551 5546 5540 5536 5534 5531 5528 5524 5522 5519 5517 5514 5512 5510 5509 5507 5506 5504 5503 5503 5502 5502 5501 5501 5501 5500 5500 5499
5628 5626 5623 5620 5616 5612 5608 5604 5598 5593 5587 5582 5577 5571 5565 5560 5555 5551 5545 5541 5539 5536 5533 5530 5527 5525 5522 5520 5518 5516 5514 5513 5512 5510 5509 5509 5508 5507 5507 5507 5506 5506 5506 5505
5626 5625 5623 5621 5617 5612 5608 5604 5600 5595 5590 5585 5580 5575 5569 5563 5559 5555 5552 5550 5546 5542 5539 5536 5534 5532 5529 5526 5524 5522 5521 5520 5518 5517 5516 5515 5514 5514 5513 5513 5512 5512 5511 5511
5626 5625 5624 5622 5619 5614 5609 5606 5603 5598 5594 5589 5584 5579 5575 5570 5566 5561 5557 5555 5552 5549 5546 5543 5541 5538 5535 5532 5530 5529 5528 5526 5525 5524 5523 5522 5521 5521 5520 5519 5519 5518 5517 5517
5625 5624 5624 5622 5619 5614 5610 5608 5605 5602 5598 5594 5589 5585 5581 5575 5570 5569 5566 5563 5559 5555 5552 5550 5547 5544 5541 5539 5537 5535 5534 5533 5532 5531 5530 5529 5528 5527 5527 5526 5525 5525 5524 5523
5624 5623 5623 5621 5618 5617 5614 5610 5606 5602 5599 5596 5592 5589 5586 5584 5579 5576 5571 5568 5565 5561 5559 5556 5553 5550 5547 5545 5544 5542 5541 5540 5539 5538 5536 5536 5535 5535 5534 5533 5532 5531 5530 5530
5621 5622 5623 5622 5622 5619 5616 5613 5609 5606 5603 5599 5595 5593 5590 5588 5585 5582 5578 5575 5572 5568 5566 5563 5560 5557 5554 5553 5551 5549 5548 5547 5546 5545 5544 5543 5542 5542 5541 5540 5539 5538 5538 5537
5618 5619 5619 5619 5619 5620 5619 5616 5613 5610 5608 5605 5601 5598 5595 5592 5589 5586 5584 5581 5578 5575 5572 5570 5567 5565 5562 5560 5559 5557 5556 5555 5554 5553 5552 5551 5550 5549 5549 5548 5547 5546 5545 5544